TKJ4CE LTAC-LTCK

Flight info

Callsign TKJ4CE
Flight time 1h 23m
Altitude 39000
Route GOBIT UL614 EZS UT368 BAYIR
Aircraft B738/M-SDE2E3FGHIRWXY/LB1

Departure

Time 2026-04-23 06:26
Airport Esenboğa International Airport (LTAC)

Arrival

Time 2026-04-23 07:49
Airport Muş Airport (LTCK)
Time Latitude Longitude Altitude Speed Heading
2026-04-23 05:59 40.11382 32.98842 3135 ft 0 kts 127°
2026-04-23 06:09 40.11389 32.98830 3135 ft 3 kts 122°
2026-04-23 06:09 40.11399 32.98807 3135 ft 3 kts 110°
2026-04-23 06:09 40.11404 32.98782 3135 ft 3 kts 93°
2026-04-23 06:10 40.11402 32.98757 3135 ft 3 kts 64°
2026-04-23 06:10 40.11394 32.98743 3135 ft 1 kts 36°
2026-04-23 06:10 40.11393 32.98742 3135 ft 1 kts 35°
2026-04-23 06:15 40.11394 32.98743 3135 ft 0 kts 35°
2026-04-23 06:15 40.11400 32.98748 3135 ft 2 kts 35°
2026-04-23 06:15 40.11418 32.98764 3135 ft 5 kts 35°
2026-04-23 06:15 40.11453 32.98798 3135 ft 8 kts 36°
2026-04-23 06:16 40.11504 32.98846 3135 ft 10 kts 37°
2026-04-23 06:16 40.11562 32.98914 3135 ft 12 kts 45°
2026-04-23 06:16 40.11636 32.98926 3135 ft 12 kts 319°
2026-04-23 06:16 40.11705 32.98897 3135 ft 12 kts 28°
2026-04-23 06:17 40.11767 32.98965 3135 ft 11 kts 40°
2026-04-23 06:17 40.11829 32.99026 3135 ft 11 kts 35°
2026-04-23 06:17 40.11891 32.99085 3135 ft 11 kts 37°
2026-04-23 06:17 40.11953 32.99145 3135 ft 12 kts 36°
2026-04-23 06:18 40.12032 32.99220 3135 ft 16 kts 36°
2026-04-23 06:18 40.12119 32.99303 3135 ft 15 kts 36°
2026-04-23 06:18 40.12202 32.99382 3135 ft 15 kts 36°
2026-04-23 06:18 40.12282 32.99458 3135 ft 14 kts 36°
2026-04-23 06:19 40.12367 32.99540 3135 ft 16 kts 36°
2026-04-23 06:19 40.12464 32.99632 3135 ft 18 kts 36°
2026-04-23 06:19 40.12570 32.99733 3135 ft 20 kts 36°
2026-04-23 06:19 40.12685 32.99842 3135 ft 21 kts 36°
2026-04-23 06:20 40.12808 32.99959 3135 ft 22 kts 36°
2026-04-23 06:20 40.12937 33.00081 3135 ft 23 kts 36°
2026-04-23 06:20 40.13072 33.00210 3135 ft 24 kts 36°
2026-04-23 06:20 40.13202 33.00335 3135 ft 23 kts 36°
2026-04-23 06:21 40.13329 33.00455 3135 ft 22 kts 36°
2026-04-23 06:21 40.13451 33.00572 3135 ft 22 kts 36°
2026-04-23 06:21 40.13570 33.00686 3135 ft 21 kts 36°
2026-04-23 06:21 40.13685 33.00795 3135 ft 20 kts 36°
2026-04-23 06:22 40.13797 33.00901 3135 ft 20 kts 36°
2026-04-23 06:22 40.13905 33.01005 3135 ft 19 kts 36°
2026-04-23 06:22 40.14021 33.01075 3135 ft 18 kts 359°
2026-04-23 06:22 40.14082 33.01036 3135 ft 0 kts 311°
2026-04-23 06:23 40.14088 33.01025 3135 ft 3 kts 304°
2026-04-23 06:24 40.14102 33.00987 3135 ft 6 kts 290°
2026-04-23 06:24 40.14106 33.00924 3135 ft 8 kts 259°
2026-04-23 06:24 40.14073 33.00859 3135 ft 9 kts 219°
2026-04-23 06:24 40.14060 33.00846 3135 ft 0 kts 216°
2026-04-23 06:25 40.14059 33.00845 3135 ft 2 kts 216°
2026-04-23 06:25 40.13964 33.00755 3135 ft 48 kts 216°
2026-04-23 06:25 40.13486 33.00301 3135 ft 120 kts 216°
2026-04-23 06:25 40.12622 32.99545 3205 ft 173 kts 211°
2026-04-23 06:26 40.11527 32.98885 4072 ft 169 kts 192°
2026-04-23 06:26 40.10282 32.98980 4720 ft 192 kts 163°
2026-04-23 06:26 40.08921 32.99148 5344 ft 209 kts 180°
2026-04-23 06:26 40.07432 32.99020 5618 ft 228 kts 185°
2026-04-23 06:27 40.05799 32.98841 5964 ft 244 kts 185°
2026-04-23 06:27 40.04077 32.98691 6494 ft 252 kts 184°
2026-04-23 06:27 40.02326 32.98575 7192 ft 250 kts 184°
2026-04-23 06:27 40.00581 32.98475 7992 ft 251 kts 185°
2026-04-23 06:28 39.98855 32.98385 8958 ft 247 kts 185°
2026-04-23 06:28 39.97146 32.98301 9866 ft 246 kts 186°
2026-04-23 06:28 39.95428 32.98218 10588 ft 250 kts 187°
2026-04-23 06:28 39.93674 32.98135 11268 ft 256 kts 187°
2026-04-23 06:29 39.91916 32.98054 12085 ft 256 kts 188°
2026-04-23 06:29 39.90137 32.97972 12917 ft 258 kts 188°
2026-04-23 06:29 39.88309 32.97857 13461 ft 272 kts 190°
2026-04-23 06:29 39.86329 32.97680 13639 ft 298 kts 190°
2026-04-23 06:30 39.84181 32.97487 13853 ft 320 kts 190°
2026-04-23 06:30 39.81921 32.97302 14381 ft 330 kts 188°
2026-04-23 06:30 39.79610 32.97700 14824 ft 344 kts 168°
2026-04-23 06:30 39.77455 32.99241 14894 ft 366 kts 146°
2026-04-23 06:31 39.75780 33.01787 14922 ft 376 kts 129°
2026-04-23 06:31 39.74382 33.04620 14913 ft 377 kts 128°
2026-04-23 06:31 39.72980 33.07503 14904 ft 377 kts 128°
2026-04-23 06:31 39.71822 33.10580 14896 ft 385 kts 109°
2026-04-23 06:32 39.71529 33.14052 14915 ft 392 kts 87°
2026-04-23 06:32 39.72180 33.17523 15233 ft 402 kts 64°
2026-04-23 06:32 39.73550 33.20683 16014 ft 402 kts 56°
2026-04-23 06:32 39.75044 33.23771 16780 ft 406 kts 55°
2026-04-23 06:33 39.76574 33.26884 17452 ft 412 kts 54°
2026-04-23 06:33 39.78118 33.30055 18134 ft 418 kts 54°
2026-04-23 06:33 39.79664 33.33281 18745 ft 423 kts 55°
2026-04-23 06:33 39.81213 33.36548 19364 ft 427 kts 55°
2026-04-23 06:34 39.82752 33.39815 19997 ft 431 kts 56°
2026-04-23 06:34 39.84321 33.43152 20601 ft 435 kts 55°
2026-04-23 06:34 39.85891 33.46541 21184 ft 441 kts 59°
2026-04-23 06:34 39.86904 33.50325 21729 ft 448 kts 81°
2026-04-23 06:35 39.86997 33.54368 22342 ft 448 kts 101°
2026-04-23 06:35 39.86210 33.58260 22928 ft 444 kts 114°
2026-04-23 06:35 39.85136 33.62047 23472 ft 448 kts 116°
2026-04-23 06:35 39.84017 33.65864 23895 ft 454 kts 116°
2026-04-23 06:36 39.82896 33.69724 24347 ft 458 kts 115°
2026-04-23 06:36 39.81785 33.73632 24829 ft 462 kts 115°
2026-04-23 06:36 39.80698 33.77523 25271 ft 466 kts 114°
2026-04-23 06:36 39.79598 33.81498 25683 ft 470 kts 114°
2026-04-23 06:37 39.78486 33.85509 26109 ft 473 kts 114°
2026-04-23 06:37 39.77362 33.89544 26525 ft 476 kts 115°
2026-04-23 06:37 39.76220 33.93602 26949 ft 480 kts 115°
2026-04-23 06:37 39.75061 33.97684 27378 ft 483 kts 115°
2026-04-23 06:38 39.73890 34.01798 27803 ft 487 kts 115°
2026-04-23 06:38 39.72710 34.05943 28204 ft 491 kts 115°
2026-04-23 06:38 39.71521 34.10115 28598 ft 494 kts 114°
2026-04-23 06:38 39.70327 34.14308 28985 ft 497 kts 114°
2026-04-23 06:39 39.69141 34.18467 29348 ft 500 kts 115°
2026-04-23 06:39 39.67928 34.22714 29688 ft 503 kts 115°
2026-04-23 06:39 39.66706 34.26985 30006 ft 507 kts 114°
2026-04-23 06:39 39.65476 34.31280 30319 ft 509 kts 114°
2026-04-23 06:40 39.64241 34.35585 30659 ft 510 kts 115°
2026-04-23 06:40 39.62999 34.39905 30982 ft 511 kts 115°
2026-04-23 06:40 39.61755 34.44228 31291 ft 513 kts 115°
2026-04-23 06:40 39.60522 34.48509 31587 ft 515 kts 115°
2026-04-23 06:41 39.59270 34.52860 31856 ft 516 kts 115°
2026-04-23 06:41 39.58010 34.57232 32139 ft 518 kts 115°
2026-04-23 06:41 39.56750 34.61600 32503 ft 517 kts 115°
2026-04-23 06:41 39.55493 34.65955 32942 ft 515 kts 115°
2026-04-23 06:42 39.54239 34.70289 33382 ft 512 kts 115°
2026-04-23 06:42 39.52991 34.74596 33771 ft 511 kts 115°
2026-04-23 06:42 39.51740 34.78902 34107 ft 510 kts 115°
2026-04-23 06:42 39.50493 34.83189 34473 ft 507 kts 115°
2026-04-23 06:43 39.49252 34.87448 34870 ft 504 kts 115°
2026-04-23 06:43 39.48033 34.91622 35248 ft 501 kts 115°
2026-04-23 06:43 39.46808 34.95813 35598 ft 499 kts 115°
2026-04-23 06:43 39.45578 35.00012 35943 ft 497 kts 115°
2026-04-23 06:44 39.44354 35.04184 36295 ft 494 kts 115°
2026-04-23 06:44 39.43135 35.08332 36651 ft 492 kts 115°
2026-04-23 06:44 39.41923 35.12455 36975 ft 490 kts 115°
2026-04-23 06:44 39.40713 35.16563 37315 ft 488 kts 115°
2026-04-23 06:45 39.39511 35.20650 37661 ft 485 kts 115°
2026-04-23 06:45 39.38344 35.24666 37997 ft 483 kts 115°
2026-04-23 06:45 39.37172 35.28721 38323 ft 480 kts 115°
2026-04-23 06:45 39.36007 35.32758 38542 ft 480 kts 115°
2026-04-23 06:46 39.34837 35.36797 38673 ft 481 kts 115°
2026-04-23 06:46 39.33663 35.40844 38794 ft 481 kts 115°
2026-04-23 06:46 39.31296 35.48965 38838 ft 485 kts 115°
2026-04-23 06:47 39.28936 35.57043 38851 ft 484 kts 115°
2026-04-23 06:47 39.26558 35.65158 38869 ft 483 kts 115°
2026-04-23 06:48 39.24177 35.73253 38864 ft 482 kts 115°
2026-04-23 06:48 39.21795 35.81331 38875 ft 481 kts 115°
2026-04-23 06:49 39.19432 35.89319 38877 ft 480 kts 115°
2026-04-23 06:49 39.17050 35.97352 38876 ft 480 kts 115°
2026-04-23 06:50 39.14949 36.05535 38862 ft 486 kts 104°
2026-04-23 06:50 39.13851 36.14129 38869 ft 487 kts 102°
2026-04-23 06:51 39.12839 36.22767 38885 ft 488 kts 102°
2026-04-23 06:51 39.11785 36.31354 38880 ft 490 kts 102°
2026-04-23 06:52 39.10680 36.40020 38880 ft 491 kts 103°
2026-04-23 06:52 39.09556 36.48694 38874 ft 492 kts 103°
2026-04-23 06:53 39.08424 36.57376 38878 ft 492 kts 103°
2026-04-23 06:53 39.07286 36.66067 38882 ft 493 kts 103°
2026-04-23 06:54 39.06148 36.74713 38888 ft 493 kts 103°
2026-04-23 06:54 39.04996 36.83414 38890 ft 493 kts 103°
2026-04-23 06:55 39.03839 36.92109 38893 ft 493 kts 103°
2026-04-23 06:55 39.02674 37.00801 38898 ft 493 kts 103°
2026-04-23 06:56 39.01510 37.09439 38901 ft 493 kts 103°
2026-04-23 06:56 39.00332 37.18130 38907 ft 494 kts 103°
2026-04-23 06:57 38.99147 37.26824 38907 ft 494 kts 103°
2026-04-23 06:57 38.97957 37.35505 38907 ft 494 kts 103°
2026-04-23 06:58 38.96766 37.44144 38910 ft 494 kts 103°
2026-04-23 06:58 38.95561 37.52831 38911 ft 494 kts 104°
2026-04-23 06:59 38.94350 37.61512 38909 ft 494 kts 104°
2026-04-23 06:59 38.93129 37.70216 38908 ft 495 kts 104°
2026-04-23 07:00 38.91903 37.78907 38903 ft 495 kts 104°
2026-04-23 07:00 38.90679 37.87541 38921 ft 494 kts 104°
2026-04-23 07:01 38.89441 37.96222 38920 ft 495 kts 104°
2026-04-23 07:01 38.88193 38.04919 38928 ft 496 kts 104°
2026-04-23 07:02 38.86939 38.13619 38925 ft 496 kts 104°
2026-04-23 07:02 38.85677 38.22325 38945 ft 496 kts 104°
2026-04-23 07:03 38.84416 38.30968 38920 ft 497 kts 104°
2026-04-23 07:03 38.83141 38.39671 38934 ft 496 kts 104°
2026-04-23 07:04 38.81861 38.48357 38928 ft 495 kts 104°
2026-04-23 07:04 38.80577 38.57028 38930 ft 495 kts 104°
2026-04-23 07:05 38.79287 38.65682 38935 ft 494 kts 104°
2026-04-23 07:05 38.78001 38.74272 38932 ft 494 kts 104°
2026-04-23 07:06 38.76703 38.82902 38931 ft 493 kts 104°
2026-04-23 07:06 38.75402 38.91512 38938 ft 492 kts 104°
2026-04-23 07:07 38.74122 39.00123 38951 ft 491 kts 104°
2026-04-23 07:07 38.72857 39.08661 38960 ft 491 kts 104°
2026-04-23 07:08 38.71575 39.17243 38956 ft 491 kts 104°
2026-04-23 07:08 38.70929 39.21570 38496 ft 499 kts 103°
2026-04-23 07:08 38.70497 39.25976 37891 ft 500 kts 96°
2026-04-23 07:09 38.70295 39.30411 37342 ft 499 kts 94°
2026-04-23 07:09 38.70157 39.34852 36753 ft 498 kts 94°
2026-04-23 07:09 38.70016 39.39278 36182 ft 498 kts 94°
2026-04-23 07:09 38.69846 39.43684 35631 ft 497 kts 94°
2026-04-23 07:10 38.69652 39.48043 35209 ft 493 kts 94°
2026-04-23 07:10 38.69446 39.52413 34786 ft 490 kts 94°
2026-04-23 07:10 38.69242 39.56750 34322 ft 488 kts 93°
2026-04-23 07:10 38.69046 39.61072 33855 ft 486 kts 93°
2026-04-23 07:11 38.68855 39.65381 33380 ft 483 kts 93°
2026-04-23 07:11 38.68665 39.69653 32936 ft 479 kts 93°
2026-04-23 07:11 38.68476 39.73875 32518 ft 475 kts 93°
2026-04-23 07:12 38.68095 39.82208 31704 ft 468 kts 93°
2026-04-23 07:12 38.67903 39.86344 31293 ft 464 kts 93°
2026-04-23 07:12 38.67710 39.90455 30904 ft 461 kts 93°
2026-04-23 07:12 38.67518 39.94525 30511 ft 458 kts 93°
2026-04-23 07:13 38.67324 39.98595 30117 ft 456 kts 93°
2026-04-23 07:13 38.67131 40.02634 29662 ft 453 kts 93°
2026-04-23 07:13 38.66938 40.06643 29219 ft 450 kts 93°
2026-04-23 07:13 38.66745 40.10615 28814 ft 446 kts 94°
2026-04-23 07:14 38.66554 40.14557 28371 ft 442 kts 94°
2026-04-23 07:14 38.66363 40.18461 27989 ft 438 kts 94°
2026-04-23 07:14 38.66172 40.22285 27580 ft 435 kts 94°
2026-04-23 07:14 38.65982 40.26130 27168 ft 432 kts 94°
2026-04-23 07:15 38.65795 40.29949 26763 ft 429 kts 94°
2026-04-23 07:15 38.65608 40.33746 26380 ft 426 kts 94°
2026-04-23 07:15 38.65422 40.37513 25974 ft 423 kts 94°
2026-04-23 07:15 38.65236 40.41260 25586 ft 421 kts 94°
2026-04-23 07:16 38.65049 40.44990 25178 ft 419 kts 94°
2026-04-23 07:16 38.64861 40.48698 24801 ft 417 kts 95°
2026-04-23 07:16 38.64674 40.52385 24412 ft 415 kts 95°
2026-04-23 07:16 38.64488 40.56016 24028 ft 413 kts 95°
2026-04-23 07:17 38.64300 40.59677 23621 ft 412 kts 95°
2026-04-23 07:17 38.64111 40.63323 23180 ft 410 kts 95°
2026-04-23 07:17 38.63922 40.66957 22754 ft 408 kts 95°
2026-04-23 07:17 38.63732 40.70570 22336 ft 406 kts 95°
2026-04-23 07:18 38.63544 40.74155 21945 ft 401 kts 95°
2026-04-23 07:18 38.63357 40.77697 21574 ft 398 kts 95°
2026-04-23 07:18 38.63169 40.81225 21188 ft 396 kts 95°
2026-04-23 07:18 38.62978 40.84718 20801 ft 393 kts 95°
2026-04-23 07:19 38.62773 40.88157 20408 ft 392 kts 96°
2026-04-23 07:19 38.62560 40.91624 20022 ft 390 kts 96°
2026-04-23 07:19 38.62346 40.95068 19663 ft 388 kts 96°
2026-04-23 07:19 38.62135 40.98496 19278 ft 386 kts 95°
2026-04-23 07:20 38.61927 41.01907 18899 ft 384 kts 95°
2026-04-23 07:20 38.61719 41.05300 18528 ft 382 kts 96°
2026-04-23 07:20 38.61508 41.08672 18134 ft 380 kts 95°
2026-04-23 07:20 38.61298 41.12037 17744 ft 378 kts 95°
2026-04-23 07:21 38.61090 41.15375 17344 ft 376 kts 96°
2026-04-23 07:21 38.60884 41.18651 16990 ft 373 kts 96°
2026-04-23 07:21 38.60677 41.21950 16616 ft 371 kts 96°
2026-04-23 07:21 38.60471 41.25227 16261 ft 369 kts 96°
2026-04-23 07:22 38.60265 41.28488 15884 ft 366 kts 96°
2026-04-23 07:22 38.60060 41.31708 15515 ft 362 kts 96°
2026-04-23 07:22 38.59855 41.34892 15193 ft 359 kts 96°
2026-04-23 07:22 38.59695 41.38069 14826 ft 358 kts 89°
2026-04-23 07:23 38.60200 41.41165 14460 ft 357 kts 67°
2026-04-23 07:23 38.61466 41.43851 14178 ft 350 kts 51°
2026-04-23 07:23 38.62929 41.46261 13814 ft 344 kts 50°
2026-04-23 07:23 38.64404 41.48620 13435 ft 335 kts 50°
2026-04-23 07:24 38.65829 41.50920 13098 ft 327 kts 51°
2026-04-23 07:24 38.67223 41.53205 12768 ft 324 kts 51°
2026-04-23 07:24 38.68600 41.55486 12401 ft 323 kts 52°
2026-04-23 07:24 38.69971 41.57766 12038 ft 324 kts 51°
2026-04-23 07:25 38.71354 41.60035 11699 ft 323 kts 48°
2026-04-23 07:25 38.73130 41.61736 11331 ft 318 kts 19°
2026-04-23 07:25 38.75256 41.62185 11017 ft 307 kts 350°
2026-04-23 07:25 38.77235 41.61359 10688 ft 296 kts 323°
2026-04-23 07:26 38.78725 41.59680 10370 ft 287 kts 303°
2026-04-23 07:26 38.79894 41.57656 10223 ft 278 kts 300°
2026-04-23 07:26 38.80996 41.55651 10070 ft 272 kts 300°
2026-04-23 07:26 38.82074 41.53690 9857 ft 269 kts 300°
2026-04-23 07:27 38.83145 41.51769 9736 ft 259 kts 300°
2026-04-23 07:27 38.84173 41.49944 9598 ft 246 kts 300°
2026-04-23 07:27 38.85152 41.48212 9477 ft 233 kts 300°
2026-04-23 07:27 38.86070 41.46589 9416 ft 216 kts 299°
2026-04-23 07:28 38.86899 41.45074 9303 ft 204 kts 291°
2026-04-23 07:28 38.87138 41.43420 9255 ft 182 kts 257°
2026-04-23 07:28 38.86654 41.41940 9122 ft 183 kts 229°
2026-04-23 07:28 38.85626 41.41002 8952 ft 185 kts 200°
2026-04-23 07:29 38.84338 41.41075 8736 ft 197 kts 158°
2026-04-23 07:29 38.83395 41.42396 8509 ft 214 kts 121°
2026-04-23 07:29 38.82794 41.44165 8167 ft 217 kts 122°
2026-04-23 07:29 38.82145 41.45893 7834 ft 214 kts 122°
2026-04-23 07:30 38.81520 41.47612 7493 ft 211 kts 121°
2026-04-23 07:30 38.80915 41.49279 7175 ft 206 kts 123°
2026-04-23 07:30 38.80311 41.50920 6845 ft 202 kts 122°
2026-04-23 07:30 38.79733 41.52538 6552 ft 198 kts 121°
2026-04-23 07:31 38.79171 41.54118 6273 ft 190 kts 119°
2026-04-23 07:31 38.78616 41.55639 5904 ft 185 kts 122°
2026-04-23 07:31 38.78094 41.57068 5627 ft 172 kts 121°
2026-04-23 07:31 38.77613 41.58403 5414 ft 160 kts 120°
2026-04-23 07:32 38.77156 41.59677 5156 ft 158 kts 121°
2026-04-23 07:32 38.76673 41.60964 4885 ft 161 kts 119°
2026-04-23 07:32 38.76217 41.62251 4615 ft 159 kts 121°
2026-04-23 07:32 38.75755 41.63533 4376 ft 161 kts 121°
2026-04-23 07:33 38.75284 41.64821 4185 ft 156 kts 116°
2026-04-23 07:33 38.74809 41.66056 4284 ft 155 kts 117°
2026-04-23 07:33 38.74375 41.67392 4511 ft 178 kts 116°
2026-04-23 07:33 38.73882 41.68919 4887 ft 190 kts 118°
2026-04-23 07:34 38.73268 41.70457 5067 ft 203 kts 127°
2026-04-23 07:34 38.72492 41.71960 4988 ft 207 kts 127°
2026-04-23 07:34 38.71688 41.73511 5002 ft 213 kts 127°
2026-04-23 07:34 38.70842 41.75180 5009 ft 235 kts 127°
2026-04-23 07:35 38.69930 41.77014 5023 ft 251 kts 125°
2026-04-23 07:35 38.69010 41.78913 4995 ft 249 kts 124°
2026-04-23 07:35 38.68098 41.80816 5296 ft 252 kts 125°
2026-04-23 07:35 38.67201 41.82688 5825 ft 250 kts 126°
2026-04-23 07:36 38.66284 41.84606 6194 ft 255 kts 127°
2026-04-23 07:36 38.65359 41.86550 6625 ft 256 kts 126°
2026-04-23 07:36 38.64432 41.88504 6977 ft 258 kts 126°
2026-04-23 07:36 38.63657 41.90598 7406 ft 270 kts 104°
2026-04-23 07:37 38.63832 41.92990 8110 ft 276 kts 72°
2026-04-23 07:37 38.64902 41.95005 8474 ft 280 kts 40°
2026-04-23 07:37 38.66626 41.96229 8519 ft 290 kts 12°
2026-04-23 07:37 38.68574 41.96356 8538 ft 280 kts 343°
2026-04-23 07:38 38.70203 41.95237 8538 ft 260 kts 307°
2026-04-23 07:38 38.70960 41.93275 8530 ft 241 kts 272°
2026-04-23 07:38 38.71096 41.91164 8521 ft 242 kts 281°
2026-04-23 07:38 38.71760 41.89155 8545 ft 249 kts 289°
2026-04-23 07:39 38.72475 41.87107 8546 ft 254 kts 289°
2026-04-23 07:39 38.73187 41.85046 8539 ft 252 kts 288°
2026-04-23 07:39 38.73895 41.82991 8537 ft 252 kts 288°
2026-04-23 07:39 38.74592 41.80966 8545 ft 251 kts 288°
2026-04-23 07:40 38.75294 41.78920 8544 ft 250 kts 288°
2026-04-23 07:40 38.75992 41.76888 8546 ft 249 kts 287°
2026-04-23 07:40 38.76689 41.74858 8552 ft 249 kts 288°
2026-04-23 07:40 38.77388 41.72820 8547 ft 250 kts 288°
2026-04-23 07:41 38.78078 41.70808 8540 ft 243 kts 288°
2026-04-23 07:41 38.78749 41.68851 8533 ft 238 kts 288°
2026-04-23 07:41 38.79409 41.66924 8542 ft 235 kts 288°
2026-04-23 07:41 38.80056 41.65031 8557 ft 234 kts 288°
2026-04-23 07:42 38.80705 41.63121 8574 ft 234 kts 288°
2026-04-23 07:42 38.81365 41.61178 8587 ft 242 kts 288°
2026-04-23 07:42 38.82029 41.59235 8550 ft 233 kts 288°
2026-04-23 07:42 38.82673 41.57351 8387 ft 229 kts 288°
2026-04-23 07:43 38.83296 41.55530 8204 ft 217 kts 288°
2026-04-23 07:43 38.83886 41.53803 8256 ft 211 kts 287°
2026-04-23 07:43 38.84486 41.52028 8272 ft 220 kts 287°
2026-04-23 07:43 38.85093 41.50235 8276 ft 224 kts 287°
2026-04-23 07:44 38.85718 41.48389 8258 ft 226 kts 287°
2026-04-23 07:44 38.86130 41.46495 8240 ft 215 kts 262°
2026-04-23 07:44 38.85583 41.44857 8240 ft 197 kts 223°
2026-04-23 07:44 38.84366 41.44244 8245 ft 193 kts 181°
2026-04-23 07:45 38.83027 41.44599 7881 ft 202 kts 173°
2026-04-23 07:45 38.81785 41.45409 7569 ft 209 kts 136°
2026-04-23 07:45 38.81143 41.47062 7398 ft 205 kts 116°
2026-04-23 07:45 38.80661 41.48713 7189 ft 193 kts 118°
2026-04-23 07:46 38.80189 41.50257 6963 ft 178 kts 120°
2026-04-23 07:46 38.79749 41.51671 6706 ft 163 kts 121°
2026-04-23 07:46 38.79327 41.52987 6514 ft 160 kts 121°
2026-04-23 07:46 38.78897 41.54305 6217 ft 161 kts 121°
2026-04-23 07:47 38.78477 41.55611 5960 ft 157 kts 123°
2026-04-23 07:47 38.78035 41.56879 5726 ft 157 kts 122°
2026-04-23 07:47 38.77531 41.58111 5468 ft 154 kts 127°
2026-04-23 07:47 38.76943 41.59216 5255 ft 146 kts 125°
2026-04-23 07:48 38.76567 41.60391 5056 ft 147 kts 102°
2026-04-23 07:48 38.76297 41.61674 4804 ft 148 kts 101°
2026-04-23 07:48 38.75988 41.62946 4507 ft 152 kts 112°
2026-04-23 07:48 38.75536 41.64195 4249 ft 156 kts 116°
2026-04-23 07:49 38.75082 41.65360 4166 ft 111 kts 134°
2026-04-23 07:49 38.74904 41.65807 4164 ft 32 kts 119°
2026-04-23 07:49 38.74806 41.66049 4164 ft 29 kts 117°
2026-04-23 07:49 38.74725 41.66280 4165 ft 28 kts 114°
2026-04-23 07:50 38.74641 41.66491 4166 ft 26 kts 118°
2026-04-23 07:50 38.74586 41.66622 4164 ft 25 kts 118°
2026-04-23 07:50 38.74491 41.66873 4162 ft 23 kts 116°
2026-04-23 07:50 38.74445 41.66992 4162 ft 22 kts 116°
2026-04-23 07:51 38.74367 41.67101 4163 ft 16 kts 190°
2026-04-23 07:51 38.74348 41.67092 4163 ft 0 kts 202°
2026-04-23 07:51 38.74339 41.67087 4163 ft 5 kts 204°
2026-04-23 07:52 38.74286 41.67047 4164 ft 12 kts 229°
2026-04-23 07:52 38.74286 41.66983 4164 ft 11 kts 291°
2026-04-23 07:52 38.74324 41.66883 4163 ft 14 kts 297°
2026-04-23 07:52 38.74380 41.66740 4163 ft 21 kts 297°
2026-04-23 07:53 38.74453 41.66545 4164 ft 27 kts 295°
2026-04-23 07:53 38.74565 41.66256 4167 ft 26 kts 296°
2026-04-23 07:53 38.74620 41.66118 4167 ft 25 kts 297°
2026-04-23 07:53 38.74719 41.65865 4165 ft 23 kts 296°
2026-04-23 07:54 38.74765 41.65745 4164 ft 22 kts 296°
2026-04-23 07:54 38.74834 41.65568 4164 ft 22 kts 296°
2026-04-23 07:54 38.74900 41.65396 4164 ft 21 kts 297°
2026-04-23 07:54 38.74966 41.65229 4165 ft 21 kts 296°
2026-04-23 07:55 38.75020 41.65089 4166 ft 12 kts 300°
2026-04-23 07:55 38.75064 41.65058 4166 ft 6 kts
2026-04-23 07:55 38.75100 41.65083 4166 ft 6 kts 32°
2026-04-23 07:55 38.75136 41.65106 4166 ft 6 kts 18°
2026-04-23 07:56 38.75180 41.65085 4166 ft 10 kts 310°
2026-04-23 07:56 38.75225 41.64982 4165 ft 16 kts 294°
2026-04-23 07:56 38.75280 41.64837 4165 ft 20 kts 297°
2026-04-23 07:56 38.75346 41.64669 4163 ft 21 kts 296°
2026-04-23 07:57 38.75408 41.64507 4163 ft 14 kts 296°
2026-04-23 07:57 38.75453 41.64396 4163 ft 14 kts 309°
2026-04-23 07:57 38.75538 41.64407 4163 ft 13 kts 27°
2026-04-23 07:57 38.75617 41.64458 4163 ft 13 kts 26°
2026-04-23 07:58 38.75696 41.64506 4163 ft 12 kts 27°
2026-04-23 07:58 38.75773 41.64555 4163 ft 12 kts 24°
2026-04-23 07:58 38.75850 41.64578 4163 ft 11 kts 342°
2026-04-23 07:58 38.75873 41.64575 4163 ft 0 kts
2026-04-23 07:59 38.75876 41.64580 4163 ft 2 kts 46°
2026-04-23 07:59 38.75892 41.64610 4163 ft 5 kts 67°
2026-04-23 07:59 38.75890 41.64652 4163 ft 5 kts 112°
2026-04-23 08:00 38.75866 41.64680 4163 ft 5 kts 157°
2026-04-23 08:00 38.75841 41.64660 4163 ft 5 kts 249°
2026-04-23 08:00 38.75838 41.64649 4163 ft 0 kts 240°
2026-04-23 08:25 38.75841 41.64656 4163 ft 2 kts 237°
2026-04-23 08:26 38.75853 41.64673 4163 ft 3 kts 203°
2026-04-23 08:26 38.75869 41.64679 4163 ft 1 kts 188°
2026-04-23 08:26 38.75871 41.64679 4163 ft 4 kts 188°